Theta_e
320 320 320 320 320 320 320 320 321 321 321 322 322 322 323 325 324 326 320 326 329 344 341 341 340 341 341 337 338 340 323 318 319 321 324 332 328 335 337 334 336 339 340 347 351
320 320 319 319 319 320 320 320 320 320 320 320 321 322 324 325 324 320 336 343 341 344 331 332 332 335 333 332 335 331 322 322 327 327 325 330 330 331 331 332 332 337 344 348 350
319 319 319 319 319 319 319 320 320 320 320 320 320 321 324 326 321 322 351 342 344 336 332 330 332 330 328 329 328 328 322 325 327 329 332 330 330 333 331 328 333 334 339 346 347
319 319 318 318 318 318 319 319 319 319 319 319 320 322 326 326 312 326 351 345 346 329 331 328 329 327 325 322 326 323 325 325 327 329 330 330 332 330 331 332 338 338 344 345 345
318 318 318 317 318 318 318 318 319 318 318 319 321 323 325 316 319 332 351 344 330 331 326 327 327 327 322 323 325 323 324 326 328 330 331 333 330 331 332 336 339 341 343 343 343
319 319 318 317 317 317 317 318 318 318 318 320 323 324 322 313 326 333 333 332 329 326 325 328 327 330 325 323 323 324 324 326 326 327 329 327 329 332 333 339 338 340 341 341 341
318 318 318 317 317 317 317 317 317 317 319 321 323 326 318 317 326 333 333 330 329 326 324 328 328 326 327 322 325 324 321 324 323 324 325 331 328 327 335 337 336 339 340 340 341
318 317 317 317 316 316 316 316 316 317 320 322 324 326 314 324 324 324 329 327 328 328 326 328 331 328 327 327 324 321 322 315 320 323 326 327 319 330 336 336 335 336 337 338 339
317 317 317 316 316 315 315 315 317 320 322 324 325 323 312 318 316 325 328 324 326 326 326 327 327 325 325 319 317 318 311 313 314 321 319 323 320 328 334 335 334 334 335 337 338
317 316 316 315 315 315 314 314 319 323 324 325 324 316 317 313 320 325 327 326 323 323 321 320 321 318 319 317 306 312 311 312 313 318 321 321 320 325 333 334 333 334 335 336 335
316 316 315 315 314 315 315 321 319 318 320 315 315 316 314 319 323 322 326 325 324 320 313 318 314 313 317 318 316 315 313 311 315 318 318 319 320 324 329 334 334 334 334 334 335
316 315 315 314 313 314 317 321 319 322 314 318 316 316 319 321 315 320 327 319 319 314 317 316 311 318 319 317 316 315 312 312 315 318 318 319 319 326 329 332 334 334 333 335 336
315 315 314 312 313 314 322 324 326 326 317 314 316 316 316 318 315 317 322 320 316 314 315 312 315 318 315 315 315 315 312 311 311 317 320 317 315 323 329 332 334 336 337 337 336
314 313 312 313 310 322 320 328 328 327 312 311 314 317 319 317 314 322 324 320 316 313 314 314 317 314 314 314 317 311 315 313 313 312 310 320 303 319 325 327 330 333 335 335 338
313 313 312 309 322 320 325 327 327 324 302 313 315 324 321 316 317 317 323 320 314 313 314 312 313 312 313 315 317 313 316 314 314 312 311 313 307 315 323 322 326 330 333 335 336
312 311 311 314 321 327 329 327 324 310 303 310 316 314 314 316 316 317 317 321 319 314 315 314 319 317 318 319 317 318 315 314 315 312 304 310 309 311 318 323 325 328 332 334 337
310 310 312 325 325 330 329 322 310 306 316 310 310 314 313 312 313 314 313 311 310 307 308 312 314 318 319 315 318 316 312 305 304 304 303 312 310 315 323 325 328 328 331 334 338
308 309 313 324 332 329 325 315 307 313 313 316 314 313 311 314 312 311 311 309 313 314 312 309 306 315 318 316 314 314 312 306 299 302 304 311 307 316 327 329 331 333 332 334 335
308 319 326 330 328 329 320 310 312 314 315 313 314 311 311 313 314 313 312 312 314 317 312 310 309 317 317 318 317 313 310 315 308 310 308 308 315 322 327 329 331 332 333 334 335
323 324 326 330 330 325 316 308 315 317 317 316 310 313 310 311 312 313 314 317 315 318 320 315 310 315 316 318 317 315 317 308 310 302 301 306 309 312 321 325 329 330 332 336 339
322 323 328 331 329 320 311 314 315 319 319 315 314 313 313 312 313 313 313 317 317 317 319 317 314 312 316 313 313 313 311 312 312 310 303 302 306 324 325 326 327 330 333 335 337
327 321 328 330 317 317 313 315 305 318 320 318 319 317 316 315 313 313 312 317 320 321 315 319 315 310 312 318 318 317 314 314 308 307 311 309 311 327 328 329 330 330 332 334 337
326 324 328 327 313 314 317 315 316 317 318 317 316 319 319 316 313 314 316 319 320 319 318 319 313 307 310 315 317 313 315 316 315 314 309 305 312 328 329 329 330 329 331 333 334
325 317 321 322 322 317 315 315 314 318 317 319 318 320 318 316 319 316 316 317 319 320 321 320 315 312 307 309 316 313 313 316 314 309 309 310 314 322 325 326 329 330 331 331 332
326 322 322 314 316 317 318 317 314 314 318 320 318 318 317 314 315 315 317 318 318 314 317 318 312 314 315 315 315 314 313 314 312 313 309 311 314 323 324 325 326 328 330 328 328
319 318 323 320 319 316 309 316 315 316 317 316 317 316 318 316 317 313 316 317 316 319 317 318 311 313 310 313 313 311 313 312 313 313 313 314 313 325 325 326 324 324 326 325 325
318 323 320 314 319 315 315 316 315 317 317 319 318 317 316 316 318 319 319 319 318 315 315 314 311 309 305 310 310 307 312 312 313 316 316 311 319 323 322 321 322 322 325 323 324
Wind_Speed
9 8 8 8 8 7 7 8 9 9 9 11 11 13 13 14 19 9 12 3 3 5 7 10 10 9 9 2 4 9 6 7 10 6 6 7 5 10 5 5 4 4 10 14 15
10 9 9 9 8 8 8 8 9 9 9 10 11 13 14 13 13 15 4 7 2 4 12 9 7 4 9 4 4 9 8 8 7 7 5 3 4 4 6 6 3 7 10 14 14
11 10 9 9 9 8 8 8 8 9 9 10 11 12 14 15 12 8 6 3 7 8 16 9 8 10 6 1 2 3 8 7 7 9 8 7 2 3 4 12 4 7 4 15 13
11 10 9 9 9 8 8 8 8 8 9 9 11 12 13 10 6 9 3 5 7 12 14 11 10 14 5 4 3 4 4 7 8 6 5 4 2 4 4 0 15 1 19 13 13
11 11 10 9 8 8 7 8 8 8 9 10 11 11 10 10 9 11 8 9 11 12 13 11 11 5 5 2 7 4 9 8 5 4 4 6 5 5 6 2 3 5 8 11 11
12 11 9 9 8 8 7 7 8 8 9 10 11 11 9 15 8 4 3 10 12 13 13 10 7 7 9 3 8 8 9 7 3 4 3 6 6 4 3 11 7 8 10 11 11
12 11 10 9 8 7 7 8 8 8 9 10 9 9 11 9 3 3 7 10 11 13 10 7 6 12 7 8 3 10 11 6 3 3 3 11 12 7 4 5 9 11 10 11 10
13 11 10 9 8 7 7 7 8 9 9 10 8 10 11 12 0 6 6 7 7 5 7 2 7 12 9 7 15 12 9 2 7 3 4 6 7 5 8 10 12 11 12 10 11
13 12 10 8 7 7 6 8 9 10 10 8 9 10 11 6 12 12 10 11 11 8 4 4 10 15 10 13 12 10 13 7 3 1 2 3 10 6 7 11 12 13 10 11 12
12 11 10 7 6 6 6 8 4 6 9 9 9 9 8 13 15 12 10 6 12 11 10 11 11 15 14 13 1 10 8 5 6 7 9 8 5 5 11 9 10 15 13 14 14
13 11 9 6 5 6 6 7 8 9 13 10 11 8 8 7 11 13 13 13 11 12 15 14 13 14 14 4 4 6 6 9 5 3 7 8 6 7 2 9 9 13 16 14 13
14 11 8 4 5 5 8 10 10 8 10 19 7 7 4 11 14 17 15 14 13 14 15 9 12 16 5 3 8 8 10 5 3 8 6 4 7 8 6 7 9 9 13 16 16
14 10 5 3 3 5 12 12 4 6 10 13 12 12 13 12 16 18 18 17 12 14 13 14 7 2 3 11 12 15 11 8 9 10 4 30 14 9 10 7 6 7 6 11 14
13 7 4 4 5 10 13 16 10 7 8 14 12 9 8 13 13 19 19 15 9 14 11 12 12 7 11 13 12 13 5 6 11 12 7 16 5 10 15 9 5 8 8 6 13
13 7 7 15 12 10 7 8 7 6 8 18 16 11 15 19 17 12 19 15 13 11 7 8 12 12 13 15 7 14 2 10 14 12 1 4 10 16 13 11 10 7 8 9 12
15 7 8 6 8 7 3 6 7 9 5 11 12 14 16 15 12 18 16 14 10 11 12 16 4 6 12 9 6 11 11 15 17 16 10 1 17 6 12 10 8 7 9 8 13
9 10 12 7 3 5 7 9 9 12 17 13 18 19 19 13 11 15 17 17 13 13 14 16 15 15 11 12 13 13 14 12 9 5 9 3 10 12 11 8 10 9 7 8 16
5 12 14 11 4 7 8 10 11 7 12 16 15 19 16 13 14 16 18 16 18 17 13 14 18 18 13 12 15 9 15 11 3 1 5 5 13 10 12 12 12 13 8 9 8
1 8 8 6 10 7 9 12 7 7 7 10 18 18 11 15 11 15 16 16 15 14 9 5 7 11 9 6 9 7 12 11 8 8 4 6 21 17 12 12 11 12 12 12 9
6 8 7 7 10 8 10 16 2 7 7 9 14 16 13 16 12 13 13 8 7 6 10 5 6 13 11 8 8 14 11 8 7 7 2 6 10 11 11 12 11 10 12 10 9
8 7 8 8 7 9 11 6 2 7 8 11 14 16 13 15 12 14 14 9 1 7 8 12 10 5 10 12 12 10 11 9 10 10 8 5 5 10 11 11 12 11 11 11 11
8 5 7 8 9 11 13 2 3 7 9 7 11 12 13 15 11 9 7 6 1 8 8 13 10 10 15 7 4 8 15 13 7 8 4 8 8 10 10 11 12 12 12 12 12
7 7 6 8 9 9 13 6 7 5 8 9 9 8 4 8 8 4 7 6 2 6 7 4 9 12 14 14 11 10 12 11 14 12 11 9 8 10 10 11 11 11 11 11 12
7 6 7 8 13 15 11 12 10 3 0 5 0 5 7 5 4 6 8 6 3 4 6 3 14 16 6 7 12 12 6 8 11 12 13 5 17 13 8 8 8 9 9 10 10
6 4 6 9 12 11 3 3 12 8 4 7 6 11 12 8 7 7 5 11 7 7 5 8 14 17 18 15 10 9 18 13 10 11 13 17 8 13 6 6 6 7 7 8 10
8 7 7 9 2 6 5 9 12 7 8 12 10 4 3 2 7 1 1 2 8 9 7 12 14 14 18 19 17 14 15 9 11 14 13 11 12 12 7 5 5 5 3 7 8
8 7 7 3 9 10 9 8 8 5 1 9 6 5 5 10 6 6 6 9 7 6 12 10 11 10 14 15 13 11 9 12 6 9 6 10 12 6 6 5 6 6 1 3 6
Wind_Direction
333 326 320 315 313 311 310 310 310 315 320 317 323 320 318 314 299 234 255 49 42 201 269 252 237 247 253 228 329 267 304 45 13 46 313 90 242 182 297 246 198 81 44 116 131
334 327 318 312 308 305 305 307 309 312 313 315 319 316 314 320 279 260 103 123 108 235 239 236 253 252 233 171 185 313 24 33 359 340 316 48 351 312 192 199 172 162 103 116 149
334 329 323 313 306 303 301 303 308 309 309 313 315 311 310 307 265 214 67 151 201 227 256 290 277 270 288 262 29 338 23 336 331 3 319 350 231 257 223 225 350 186 109 141 160
334 330 324 314 306 301 300 300 304 306 307 311 307 308 309 257 235 83 75 172 201 233 245 257 249 245 287 8 48 274 344 344 337 332 302 268 320 247 247 346 173 170 169 150 176
333 328 322 314 305 297 295 296 299 303 302 301 303 308 281 220 251 128 157 161 190 213 237 248 266 291 255 12 324 278 340 321 351 342 287 287 259 270 264 233 156 121 138 167 179
329 323 318 313 304 294 288 293 297 298 295 298 298 305 241 242 79 100 166 171 202 216 231 249 294 354 291 306 288 332 317 286 355 337 312 297 273 221 152 162 181 163 169 172 180
328 323 315 310 301 290 282 289 289 289 289 290 293 278 257 242 67 124 187 193 205 216 235 237 303 271 350 280 325 290 270 216 192 4 290 322 233 210 186 192 172 187 177 157 179
327 321 314 307 298 285 276 279 281 277 278 275 275 256 257 215 235 205 194 182 196 222 286 332 268 274 275 315 261 251 293 254 72 304 100 307 37 101 147 203 179 191 164 166 175
328 321 314 304 293 275 264 267 266 266 260 258 236 235 230 116 214 212 207 185 184 202 215 281 259 262 266 233 246 219 211 34 293 102 312 235 310 213 188 209 195 158 166 174 173
328 322 314 299 284 258 251 259 271 240 220 214 269 242 235 211 189 184 195 226 190 192 211 229 234 242 219 236 198 245 331 315 318 27 334 276 329 30 162 214 226 162 173 177 173
329 320 310 293 276 240 218 196 196 191 205 228 174 259 129 122 143 191 181 199 209 201 221 193 222 227 233 47 19 289 263 280 1 353 325 5 24 32 185 173 218 178 164 177 198
330 321 306 275 260 236 255 238 30 344 209 222 255 256 265 174 187 189 187 204 204 213 219 184 235 251 46 287 253 264 254 273 296 330 275 355 67 56 41 148 188 233 170 171 182
330 323 300 247 199 207 229 219 328 337 257 166 199 209 181 206 194 179 196 215 195 228 200 249 192 80 241 213 231 227 274 23 316 326 287 60 333 103 96 109 167 210 236 174 165
334 326 263 180 217 198 226 237 257 302 259 143 188 203 178 206 209 180 200 206 224 238 228 233 254 194 219 236 244 265 102 289 289 293 265 128 236 102 108 110 148 182 203 235 182
327 295 240 231 328 203 66 167 204 247 243 152 149 122 169 212 141 196 183 215 241 207 267 221 213 221 225 237 215 284 354 282 287 280 330 93 108 93 56 65 117 175 184 205 155
319 253 183 190 236 287 237 185 232 231 173 152 142 179 179 219 190 149 187 220 231 260 201 271 186 226 225 238 244 275 283 266 256 244 352 332 113 296 55 44 63 124 154 177 152
318 204 196 299 53 166 208 201 224 250 138 151 170 170 194 179 158 172 183 199 215 208 212 210 232 225 224 241 228 230 249 252 216 184 216 128 39 56 71 54 59 81 137 169 158
352 158 214 267 320 256 210 222 253 104 199 156 171 176 196 162 154 174 184 199 227 247 170 205 181 200 193 232 277 214 256 276 243 102 248 186 124 88 79 56 72 72 75 158 185
17 203 238 201 214 231 225 223 251 186 119 164 165 185 181 186 156 179 184 202 188 232 286 196 113 150 167 242 245 159 232 327 287 190 99 220 104 96 81 82 71 71 52 35 15
262 203 164 143 163 218 242 257 69 360 307 193 188 192 172 178 194 202 189 195 178 205 266 28 177 181 167 225 225 281 334 247 256 184 287 352 171 119 110 90 75 62 70 52 42
239 221 116 163 192 228 238 210 170 165 242 239 208 201 179 177 209 204 161 124 239 142 241 260 268 168 162 216 232 189 227 239 309 333 332 286 64 101 110 90 86 72 59 49 41
281 236 144 176 215 221 236 160 17 247 181 261 285 197 227 170 200 191 164 79 87 287 209 224 294 228 210 185 327 318 304 311 273 241 1 324 106 111 96 81 81 74 63 50 40
257 105 165 222 241 202 238 229 242 248 193 203 224 287 177 170 204 224 112 82 188 230 355 312 241 253 243 199 186 241 235 233 280 307 299 302 118 129 118 96 77 66 60 58 44
273 181 152 213 270 287 216 214 185 183 178 280 356 240 199 180 238 169 143 163 160 65 354 285 271 274 303 245 271 290 225 263 287 295 312 341 127 152 88 76 69 73 52 49 43
244 350 16 190 225 242 305 308 226 164 232 232 202 225 209 200 171 194 154 139 197 134 241 260 276 286 295 297 275 261 288 293 281 282 290 304 49 86 85 56 61 54 54 45 32
326 336 342 295 242 259 161 230 235 151 279 185 257 175 223 277 15 60 266 191 292 152 251 256 267 279 280 285 284 275 281 265 287 281 291 295 287 82 103 83 50 40 60 35 22
7 315 274 213 241 218 231 221 228 51 233 5 34 235 175 66 360 352 318 311 280 262 277 265 281 263 261 276 282 244 290 288 210 326 335 297 51 35 49 29 3 334 123 50 3